Location: Newark
(58.8333°N, 23.5833°E)
Time: 16:41:52
(UTC+00:00)

A-11 Canister half - Pass Details

Date: 26 November 2019
Orbit: 1515 x 1684 km, 47.2° (Epoch: 14 December)

Event Time Altitude Azimuth Distance (km) Brightness Sun altitude
Rises 15:26:25 0° 231° (SW) 4,868 13.2 -12.0°
Reaches altitude 10° 15:29:49 10° 223° (SW) 3,901 12.2 -12.5°
Maximum altitude 15:38:41 38° 161° (SSE) 2,380 10.0 -13.5°
Enters shadow 15:46:51 13° 101° (E) 3,727 10.5 -14.6°
Drops below altitude 10° 15:47:41 10° 99° (E) 3,952 - -14.7°
Sets 15:51:08 0° 91° (E) 4,937 - -15.1°
